Location: ??????
(42.0089°N, 44.3281°E)
Time: 19:47:53
(UTC+00:00)

CZ-2C R/B - Pass Details

Date: 30 May 2022
Orbit: 785 x 869 km, 98.2° (Epoch: 25 June)

Event Time Altitude Azimuth Distance (km) Brightness Sun altitude
Rises 00:28:43 0° 130° (SE) 3,277 5.9 -10.1°
Reaches altitude 10° 00:31:23 10° 117° (ESE) 2,361 5.3 -9.8°
Maximum altitude 00:35:32 25° 64° (ENE) 1,588 5.2 -9.2°
Drops below altitude 10° 00:39:45 10° 12° (NNE) 2,409 5.9 -8.6°
Sets 00:42:30 0° 359° (N) 3,360 6.4 -8.2°
